CAPE
2923 2941 2871 2566 2560 2457 2383 2234 1865 2165 1905 1945 2063 1832 1792 1663 1388 1548 1355 1337 1472 1346 843 0 1 4 463 363 138 417 258 381 138 469 91 235 152 64 137 79 3 72
2932 2946 2875 2722 2662 2495 2394 2317 1978 2066 2039 1921 1906 1927 1864 1590 1495 1560 1397 1306 1565 1183 814 81 33 17 269 365 290 471 268 266 198 521 173 296 179 67 90 25 18 56
2946 2937 2881 2876 2807 2712 2506 2459 2288 2066 2165 2088 1858 1955 1736 1867 1581 1613 1438 1228 1465 890 449 203 242 134 264 274 342 551 320 190 342 323 104 143 145 216 200 251 30 168
2935 2939 2859 2888 2949 2868 2731 2408 2676 2232 2182 2156 2053 2005 1824 1749 1913 1640 1470 1524 1130 695 436 173 360 318 428 267 202 210 468 292 209 262 85 162 121 53 88 166 184 37
2968 2929 2825 2829 2890 2960 2809 2631 2598 2462 2257 2185 2174 2048 2047 1647 1836 1621 1391 1167 953 765 609 475 362 398 480 465 272 183 260 391 332 307 272 220 121 159 92 246 254 128
3007 2918 2863 2770 2794 2924 2810 2799 2597 2476 2378 2240 2172 2188 2015 1790 1460 1550 1210 1072 972 883 722 576 283 383 428 568 384 205 344 187 240 202 412 290 164 186 277 303 402 231
3078 2939 2900 2765 2728 2796 2804 2737 2693 2548 2364 2223 2168 2248 1976 1926 1570 1299 1330 1162 1019 899 737 482 241 227 422 475 577 245 244 292 225 200 222 547 315 212 201 226 266 278
3102 3000 2955 2810 2693 2694 2734 2676 2656 2641 2395 2282 2114 2194 1994 1849 1659 1366 1241 1067 929 783 605 407 314 276 300 313 619 446 271 354 275 226 197 352 466 353 169 248 265 253
3149 3110 3055 2912 2745 2639 2666 2648 2644 2611 2522 2300 2300 2058 2006 1788 1648 1482 1254 997 842 666 530 493 416 412 390 360 458 576 390 378 376 343 197 217 384 374 262 226 264 339
3190 3209 3150 3100 2867 2698 2664 2690 2663 2630 2599 2416 2410 2248 2061 1869 1706 1542 1401 1173 896 683 594 566 491 442 475 480 449 531 558 489 415 344 218 204 254 336 336 311 308 383
3237 3248 3250 3199 3074 2867 2741 2726 2720 2717 2681 2552 2447 2423 2279 2061 1865 1684 1514 1316 1088 832 702 604 552 477 489 538 526 500 545 540 469 473 399 247 243 252 441 252 320 451
3261 3302 3289 3248 3168 3041 2936 2783 2749 2780 2783 2733 2564 2472 2436 2297 2082 1876 1675 1465 1243 1020 822 704 609 539 494 556 581 547 527 538 505 483 542 482 355 260 288 214 249 381
3261 3343 3334 3283 3193 3067 2969 2902 2750 2756 2874 2859 2787 2610 2485 2394 2245 2062 1865 1657 1445 1231 1003 796 677 547 466 533 595 594 514 410 364 381 533 541 476 380 306 244 250 372
3273 3342 3376 3328 3228 3076 2912 2873 2789 2653 2832 2978 2932 2812 2626 2490 2346 2163 2001 1806 1634 1432 1235 1008 764 601 479 439 520 434 576 645 488 468 484 500 499 450 404 320 315 403
3332 3366 3454 3449 3320 3144 2965 2840 2791 2697 2728 3015 3068 2977 2792 2615 2481 2345 2188 2008 1833 1664 1477 1307 1138 964 789 628 596 700 769 660 646 646 609 435 263 282 236 443 455 513
3335 3384 3486 3548 3520 3373 3202 3070 2944 2821 2816 3113 3234 3134 2996 2816 2648 2531 2399 2253 2118 1981 1855 1710 1543 1346 1248 1190 1160 1189 1217 1148 980 886 725 511 403 300 301 348 429 480
3405 3418 3467 3531 3594 3556 3395 3262 3175 3029 2936 3123 3383 3362 3211 3037 2878 2777 2667 2559 2460 2338 2190 2017 1881 1821 1704 1614 1608 1564 1445 1250 1092 856 624 527 493 489 318 219 196 322
3546 3536 3501 3506 3585 3648 3555 3378 3283 3241 3158 3208 3388 3484 3460 3342 3165 3014 2906 2839 2730 2626 2508 2434 2346 2212 2111 1999 1894 1707 1530 1276 964 811 597 506 430 376 317 327 282 309
3774 3702 3624 3566 3582 3691 3715 3581 3454 3497 3540 3551 3576 3503 3465 3434 3375 3293 3187 3037 2909 2879 2813 2705 2577 2437 2310 2193 2012 1809 1673 1475 1108 754 585 538 385 288 245 322 292 249
4021 3935 3857 3747 3703 3765 3927 3949 3776 3738 3894 3809 3768 3695 3570 3504 3460 3384 3294 3191 3101 3013 2898 2778 2706 2562 2408 2266 2026 1888 1668 1462 1263 787 582 446 365 290 318 508 629 512
4242 4195 4166 4076 4002 4052 4240 4281 4127 4043 4130 4042 3870 3824 3725 3606 3503 3405 3325 3223 3119 2979 2865 2814 2696 2582 2440 2254 1968 1632 1456 1338 933 903 608 463 413 335 320 551 562 598
4464 4472 4524 4469 4358 4412 4532 4519 4395 4266 4227 4116 3940 3810 3715 3587 3448 3275 3272 3181 3072 2991 2876 2796 2671 2510 2336 2177 1967 1765 1722 1381 922 994 745 673 492 264 316 298 446 376
4698 4787 4802 4757 4638 4576 4606 4616 4529 4396 4258 4116 3985 3870 3762 3640 3495 3337 3283 3235 3150 3038 2924 2801 2684 2458 2216 2050 1924 1928 1681 1268 962 848 806 743 555 355 328 319 385 320
4963 4973 4919 4882 4763 4658 4574 4563 4528 4414 4300 4178 4046 3932 3830 3698 3459 3197 3219 3176 3128 3026 2909 2830 2710 2513 2296 2151 1987 1809 1539 1392 1077 857 735 547 485 436 436 448 324 517
5118 5048 4949 4890 4807 4682 4555 4456 4360 4288 4210 4080 3940 3809 3688 3491 3240 3124 3115 3083 3021 2892 2734 2684 2627 2533 2312 2083 1912 1679 1527 1403 1172 916 770 601 602 557 502 387 343 691
5144 5044 4951 4837 4708 4612 4470 4346 4204 4085 3947 3863 3765 3699 3585 3349 3101 2926 2826 2777 2732 2687 2613 2569 2481 2382 2132 1902 1756 1626 1487 1328 1153 996 930 762 612 619 495 297 333 760
Wind_Speed
15 16 17 17 16 17 17 17 17 18 18 18 18 17 19 20 22 23 22 22 23 25 26 nan nan nan 27 28 29 30 31 32 32 32 nan 38 36 nan 27 nan nan nan
16 17 17 18 17 17 17 17 18 19 19 17 17 18 18 20 22 24 25 24 25 28 28 nan nan nan 28 29 31 33 34 33 34 33 35 38 38 nan nan nan nan nan
18 18 19 19 19 19 18 18 18 18 18 17 17 18 18 19 21 23 26 27 28 29 29 30 30 30 30 29 31 34 36 35 35 34 35 37 39 36 28 24 nan 30
19 19 20 20 21 20 19 18 18 17 17 16 17 18 19 19 21 24 25 28 28 29 29 29 31 31 31 31 32 33 35 36 35 34 nan 35 38 nan nan 27 27 nan
19 20 20 21 21 20 19 18 18 17 16 15 16 18 19 20 21 24 25 26 27 28 28 29 30 32 33 34 35 34 34 35 34 34 34 34 36 37 nan 32 30 28
16 18 19 19 19 18 17 16 15 14 14 14 16 17 19 22 23 25 25 26 26 28 29 30 32 33 35 35 36 36 36 35 35 35 33 33 34 35 34 35 34 34
14 15 16 16 16 15 14 13 12 11 12 13 15 17 19 21 24 26 27 28 28 29 32 33 34 35 35 35 36 37 37 37 36 37 36 33 33 33 34 36 38 40
12 11 12 12 12 11 10 9 9 9 11 13 15 17 19 21 24 25 27 29 30 32 33 35 36 37 38 38 39 40 39 38 38 38 37 35 33 33 34 36 38 40
12 10 10 10 10 8 8 9 9 9 11 13 15 17 19 22 24 25 27 29 31 32 33 35 37 40 42 43 43 44 44 42 41 40 38 36 34 34 35 36 37 38
12 10 10 9 9 7 9 10 10 9 10 12 14 17 19 21 24 26 27 30 31 32 33 35 39 42 44 46 47 47 47 46 44 41 37 35 34 34 35 36 36 37
11 10 9 10 9 8 10 10 11 11 10 12 14 16 19 21 22 25 27 29 30 32 34 36 40 43 45 47 47 46 46 45 43 40 37 35 34 34 34 35 35 36
10 10 10 10 10 9 10 10 10 11 12 12 15 17 19 20 22 23 24 27 28 30 34 37 39 41 45 47 48 47 45 43 41 40 38 36 35 34 34 34 34 35
10 10 9 9 9 9 9 9 9 11 13 15 17 19 20 20 21 22 23 25 28 30 33 36 38 41 44 46 47 47 46 43 40 39 39 38 36 36 35 35 35 36
10 9 9 9 9 8 8 8 9 11 13 15 18 19 20 20 21 23 24 26 28 31 35 38 40 41 43 46 47 47 46 44 42 39 38 37 36 35 35 35 37 37
10 9 9 9 8 8 8 9 10 11 12 14 16 18 18 21 23 25 27 28 30 34 37 40 41 42 43 47 48 47 46 43 41 40 39 37 37 35 35 36 37 37
12 11 9 8 8 8 9 10 11 12 13 13 15 18 20 23 25 28 30 32 34 36 38 40 41 41 46 53 51 49 47 43 40 39 39 38 38 37 36 37 36 36
13 12 9 7 7 9 10 11 12 13 14 15 17 20 24 26 28 31 32 34 36 37 39 40 41 43 53 56 56 55 49 43 39 38 37 38 38 38 37 37 35 35
14 13 9 6 7 10 12 13 14 15 16 18 21 24 26 28 30 32 34 35 36 39 41 41 42 47 55 57 57 56 51 43 37 35 36 36 37 38 36 36 37 36
16 13 10 8 8 11 14 16 16 17 19 21 24 26 28 30 32 34 35 37 39 41 42 43 43 50 56 57 59 57 54 46 37 35 35 36 37 37 36 37 38 39
17 13 10 10 11 14 16 17 18 19 21 23 26 28 31 32 34 36 38 40 41 42 43 44 45 51 57 58 58 58 55 47 39 37 36 37 38 38 38 39 41 41
17 15 13 13 15 17 18 18 20 21 24 26 28 30 32 34 36 38 40 42 43 44 45 46 46 55 58 59 59 59 56 49 41 39 39 40 40 40 40 41 42 42
18 17 17 17 19 20 20 22 23 25 27 28 30 32 34 36 37 40 42 43 44 46 47 48 48 57 58 58 59 59 57 48 43 41 41 42 42 42 42 41 42 42
18 19 20 20 21 22 23 26 27 28 30 31 34 36 38 39 40 41 43 46 46 48 50 49 49 54 56 57 60 62 55 46 45 43 43 44 43 42 42 41 41 41
21 22 22 22 23 24 27 29 30 31 33 34 38 40 41 42 44 46 46 47 48 49 51 52 51 53 56 56 60 60 55 49 46 46 45 44 42 40 41 40 40 41
25 24 25 26 27 29 31 34 34 34 35 37 40 43 44 46 48 49 49 49 50 51 53 54 53 52 53 56 58 58 53 48 46 44 43 41 39 38 37 39 39 38
29 28 28 29 31 34 36 37 37 38 39 41 42 45 47 49 51 53 53 52 54 56 55 54 54 52 53 57 58 57 56 49 45 44 41 40 39 38 37 37 37 36
Wind_Direction
294 293 294 294 292 289 297 307 313 312 315 314 311 311 313 315 320 320 325 325 324 325 330 nan nan nan 329 331 335 335 337 337 335 332 nan 327 329 nan 334 nan nan nan
292 291 288 287 283 285 291 305 313 313 315 315 309 307 309 315 319 319 325 325 323 327 330 nan nan nan 332 333 335 335 338 337 337 333 333 330 330 nan nan nan nan nan
286 286 289 289 288 293 298 300 308 310 312 315 311 308 311 315 319 320 325 324 325 328 329 329 329 332 333 335 334 334 337 338 338 336 334 332 329 327 325 328 nan 336
286 286 285 286 286 292 296 298 301 306 308 310 314 311 313 312 313 323 325 325 325 329 329 329 331 332 334 336 335 335 335 336 335 333 nan 331 329 nan nan 318 326 nan
289 285 284 285 285 290 294 301 305 308 314 312 310 312 312 316 311 321 325 327 327 328 329 330 331 334 334 335 335 334 333 331 331 328 330 328 326 324 nan 317 320 329
293 291 289 289 290 295 299 302 306 312 315 312 314 310 313 317 318 320 326 328 330 329 331 332 333 334 334 332 333 333 330 328 327 325 325 326 322 320 319 318 318 323
304 298 298 294 299 304 305 304 305 314 319 314 305 313 314 319 323 323 326 329 331 331 333 333 333 333 333 332 332 333 330 328 325 324 324 323 319 318 318 319 320 319
316 309 307 305 314 314 316 317 318 319 319 312 319 314 317 321 326 325 324 328 330 332 333 334 334 335 336 336 334 333 332 328 328 326 324 321 318 319 321 320 319 318
318 322 327 329 332 327 334 334 333 326 320 320 320 315 317 321 325 326 326 327 329 332 334 335 337 338 339 339 337 334 333 331 331 330 326 320 319 321 322 320 319 319
322 329 340 340 342 338 345 341 334 329 320 320 316 314 319 321 324 325 325 328 331 333 336 338 341 341 341 340 339 336 334 333 332 331 327 322 320 318 317 317 318 317
331 332 342 347 346 337 346 341 335 327 319 323 314 317 320 320 321 322 325 329 335 337 338 340 343 342 342 341 339 337 336 333 332 330 327 324 321 317 315 313 313 315
331 334 343 348 345 336 339 341 335 328 325 321 319 319 318 320 321 322 326 333 337 338 339 339 339 341 341 340 339 337 335 333 333 330 325 322 321 319 315 312 312 312
329 333 333 336 332 330 330 337 339 332 327 325 319 317 317 322 326 329 329 332 334 334 336 336 336 338 338 337 337 336 335 334 332 330 325 320 320 319 316 314 312 310
323 322 320 323 322 324 330 336 333 326 325 320 315 321 324 329 333 334 332 330 331 333 334 334 334 335 336 336 334 334 334 334 334 331 326 320 316 316 315 314 313 313
307 304 304 311 320 324 327 328 327 325 320 317 320 325 326 331 331 331 331 331 330 332 333 333 334 335 334 334 333 332 331 333 333 332 328 324 322 319 316 314 312 312
301 298 303 313 316 320 324 321 318 318 317 319 324 328 328 326 327 328 331 333 333 332 331 331 332 331 333 336 336 332 332 332 332 333 330 327 324 321 318 315 312 308
296 300 302 317 312 308 310 309 310 308 311 314 319 324 325 323 322 326 330 332 332 330 331 331 331 331 334 338 338 336 333 331 333 331 328 326 324 322 319 315 312 308
299 302 304 305 296 300 301 302 298 300 308 312 313 319 321 319 321 324 327 327 327 327 330 332 333 333 335 337 336 336 332 330 330 326 324 323 322 321 317 312 310 308
298 300 300 291 291 290 289 292 299 303 307 309 315 316 314 319 321 319 322 323 324 326 328 331 332 332 334 335 337 335 333 331 326 324 321 321 320 318 314 310 306 304
295 294 290 287 282 282 284 292 300 308 306 305 304 309 315 316 317 317 317 320 322 324 326 327 329 329 332 333 334 335 333 329 324 323 320 319 319 317 313 308 304 305
289 287 284 280 280 280 284 293 300 299 300 302 304 307 310 313 314 312 314 317 319 321 322 324 325 327 330 333 335 333 332 328 322 320 319 318 319 317 311 307 304 304
285 283 280 277 279 282 287 293 297 300 300 299 299 298 300 303 306 307 310 313 315 317 318 321 321 326 331 332 331 332 330 325 321 318 318 318 319 316 313 309 307 307
279 280 280 280 283 289 292 292 294 296 296 297 297 297 299 301 303 303 304 307 311 314 316 317 314 321 325 328 330 329 325 323 318 315 314 314 315 315 313 311 310 307
275 277 279 281 285 290 288 286 287 290 294 296 297 297 298 300 300 299 300 304 308 310 312 311 310 317 324 325 324 325 325 323 320 318 318 318 317 315 313 313 311 316
270 273 277 281 284 283 282 285 289 292 292 292 294 295 297 298 298 299 299 302 305 306 307 308 308 313 320 320 322 325 326 323 323 323 321 318 316 316 315 312 310 314
265 271 275 279 280 279 280 284 285 287 290 291 292 293 295 296 296 298 301 303 303 302 303 305 308 309 316 319 323 326 330 326 324 323 323 321 317 317 315 312 312 310